RYR50XY LFMU-EGGW

Flight info

Callsign RYR50XY
Flight time 1h 38m
Altitude 36000
Route FJR DCT NG DCT MOLEN DCT MTL DCT ETREK DCT MADOT DCT MOPEM DCT CACHI DCT AVLON DCT OKRIX DCT BRY DCT CLM DCT KOPOR DCT PIREG DCT SOSUN DCT SUBIP UM733 UNDUG
Aircraft B738/M-SDE3FGILRWY/SB1

Departure

Time 2026-04-21 12:02
Airport Béziers Vias airport (LFMU)

Arrival

Time 2026-04-21 13:41
Airport London Luton Airport (EGGW)
Time Latitude Longitude Altitude Speed Heading
2026-04-21 11:23 43.32133 3.35343 55 ft 0 kts 186°
2026-04-21 11:53 43.32135 3.35344 57 ft 3 kts 185°
2026-04-21 11:53 43.32158 3.35346 55 ft 3 kts 185°
2026-04-21 11:53 43.32178 3.35354 51 ft 4 kts 248°
2026-04-21 11:54 43.32178 3.35386 50 ft 4 kts 284°
2026-04-21 11:54 43.32174 3.35411 54 ft 0 kts 274°
2026-04-21 11:57 43.32174 3.35396 56 ft 4 kts 273°
2026-04-21 11:57 43.32180 3.35341 50 ft 7 kts 293°
2026-04-21 11:58 43.32193 3.35327 53 ft 1 kts 338°
2026-04-21 11:59 43.32201 3.35325 55 ft 6 kts 352°
2026-04-21 11:59 43.32271 3.35331 56 ft 11 kts
2026-04-21 11:59 43.32334 3.35309 54 ft 9 kts 311°
2026-04-21 12:00 43.32352 3.35205 56 ft 15 kts 273°
2026-04-21 12:00 43.32362 3.35013 57 ft 24 kts 274°
2026-04-21 12:00 43.32375 3.34777 57 ft 24 kts 274°
2026-04-21 12:00 43.32388 3.34555 58 ft 23 kts 275°
2026-04-21 12:01 43.32400 3.34349 60 ft 18 kts 274°
2026-04-21 12:01 43.32389 3.34237 55 ft 8 kts 245°
2026-04-21 12:01 43.32399 3.34199 55 ft 6 kts 13°
2026-04-21 12:01 43.32406 3.34249 61 ft 5 kts 96°
2026-04-21 12:02 43.32405 3.34258 61 ft 8 kts 96°
2026-04-21 12:02 43.32306 3.36065 89 ft 168 kts 95°
2026-04-21 12:02 43.32258 3.37717 922 ft 174 kts 92°
2026-04-21 12:03 43.32251 3.39486 1738 ft 197 kts 89°
2026-04-21 12:03 43.32530 3.41387 2218 ft 218 kts 61°
2026-04-21 12:03 43.33624 3.42978 2486 ft 241 kts 41°
2026-04-21 12:03 43.34892 3.44564 3054 ft 249 kts 43°
2026-04-21 12:04 43.36127 3.46265 3744 ft 257 kts 44°
2026-04-21 12:04 43.37378 3.48112 4325 ft 270 kts 47°
2026-04-21 12:04 43.38629 3.50067 5236 ft 273 kts 47°
2026-04-21 12:04 43.39868 3.52095 6076 ft 281 kts 48°
2026-04-21 12:05 43.41119 3.54201 6892 ft 286 kts 49°
2026-04-21 12:05 43.42372 3.56337 7801 ft 288 kts 48°
2026-04-21 12:05 43.43636 3.58499 8689 ft 291 kts 48°
2026-04-21 12:05 43.44774 3.60842 9528 ft 299 kts 58°
2026-04-21 12:06 43.45717 3.63417 10341 ft 305 kts 61°
2026-04-21 12:06 43.46664 3.66159 10602 ft 330 kts 62°
2026-04-21 12:06 43.47680 3.69106 10952 ft 349 kts 62°
2026-04-21 12:06 43.48740 3.72147 11665 ft 355 kts 61°
2026-04-21 12:07 43.49848 3.75193 12495 ft 356 kts 56°
2026-04-21 12:07 43.51317 3.77919 13299 ft 355 kts 44°
2026-04-21 12:07 43.53150 3.80181 14062 ft 354 kts 32°
2026-04-21 12:07 43.55178 3.82130 14767 ft 357 kts 30°
2026-04-21 12:08 43.57257 3.84050 15462 ft 362 kts 30°
2026-04-21 12:08 43.59364 3.85980 16160 ft 366 kts 30°
2026-04-21 12:08 43.61461 3.87909 16826 ft 370 kts 30°
2026-04-21 12:08 43.63612 3.89901 17511 ft 374 kts 30°
2026-04-21 12:09 43.65780 3.91922 18187 ft 378 kts 30°
2026-04-21 12:09 43.67972 3.93975 18774 ft 383 kts 30°
2026-04-21 12:09 43.70181 3.96053 19365 ft 386 kts 30°
2026-04-21 12:09 43.72413 3.98156 19941 ft 390 kts 30°
2026-04-21 12:10 43.74664 4.00282 20525 ft 394 kts 30°
2026-04-21 12:10 43.76934 4.02428 21101 ft 397 kts 30°
2026-04-21 12:10 43.79228 4.04599 21650 ft 401 kts 30°
2026-04-21 12:10 43.81544 4.06793 22206 ft 405 kts 30°
2026-04-21 12:11 43.83879 4.09008 22759 ft 409 kts 30°
2026-04-21 12:11 43.86236 4.11245 23271 ft 413 kts 30°
2026-04-21 12:11 43.88613 4.13505 23771 ft 416 kts 30°
2026-04-21 12:11 43.91003 4.15778 24228 ft 418 kts 30°
2026-04-21 12:12 43.93410 4.18070 24716 ft 420 kts 30°
2026-04-21 12:12 43.95825 4.20373 25188 ft 422 kts 30°
2026-04-21 12:12 43.98254 4.22690 25608 ft 426 kts 30°
2026-04-21 12:12 44.00704 4.25029 26047 ft 428 kts 30°
2026-04-21 12:13 44.03166 4.27382 26481 ft 431 kts 30°
2026-04-21 12:13 44.05640 4.29750 26902 ft 433 kts 30°
2026-04-21 12:13 44.08126 4.32132 27331 ft 436 kts 30°
2026-04-21 12:13 44.10630 4.34533 27730 ft 438 kts 30°
2026-04-21 12:14 44.13146 4.36947 28126 ft 441 kts 30°
2026-04-21 12:14 44.15674 4.39377 28531 ft 443 kts 30°
2026-04-21 12:14 44.18218 4.41824 28900 ft 446 kts 30°
2026-04-21 12:14 44.20776 4.44287 29253 ft 448 kts 30°
2026-04-21 12:15 44.23311 4.46732 29633 ft 450 kts 30°
2026-04-21 12:15 44.25925 4.49254 30009 ft 452 kts 30°
2026-04-21 12:15 44.28512 4.51755 30367 ft 452 kts 30°
2026-04-21 12:15 44.31089 4.54250 30817 ft 450 kts 30°
2026-04-21 12:16 44.33623 4.56705 31217 ft 449 kts 30°
2026-04-21 12:16 44.36192 4.59195 31548 ft 450 kts 29°
2026-04-21 12:16 44.38769 4.61695 31868 ft 451 kts 29°
2026-04-21 12:16 44.41343 4.64196 32268 ft 450 kts 29°
2026-04-21 12:17 44.43904 4.66688 32696 ft 448 kts 28°
2026-04-21 12:17 44.46460 4.69176 33079 ft 447 kts 28°
2026-04-21 12:17 44.49014 4.71665 33426 ft 447 kts 28°
2026-04-21 12:17 44.51565 4.74150 33781 ft 446 kts 27°
2026-04-21 12:18 44.54254 4.76191 34120 ft 434 kts 13°
2026-04-21 12:18 44.57138 4.77144 34412 ft 421 kts 359°
2026-04-21 12:18 44.60020 4.77167 34704 ft 409 kts 346°
2026-04-21 12:18 44.62817 4.76528 35003 ft 407 kts 345°
2026-04-21 12:19 44.65607 4.75863 35259 ft 407 kts 345°
2026-04-21 12:19 44.68403 4.75205 35505 ft 407 kts 345°
2026-04-21 12:19 44.71201 4.74560 35799 ft 407 kts 345°
2026-04-21 12:19 44.73996 4.73926 35968 ft 409 kts 345°
2026-04-21 12:20 44.76824 4.73288 35977 ft 414 kts 345°
2026-04-21 12:20 44.82581 4.72002 35979 ft 423 kts 345°
2026-04-21 12:21 44.88428 4.70703 35977 ft 427 kts 345°
2026-04-21 12:21 44.94316 4.69392 35973 ft 429 kts 346°
2026-04-21 12:22 45.00220 4.68074 35981 ft 430 kts 346°
2026-04-21 12:22 45.06076 4.66762 35977 ft 428 kts 346°
2026-04-21 12:23 45.11948 4.65444 35992 ft 426 kts 346°
2026-04-21 12:23 45.17800 4.64127 35983 ft 425 kts 346°
2026-04-21 12:24 45.23625 4.62804 35995 ft 423 kts 345°
2026-04-21 12:24 45.29417 4.61476 36014 ft 421 kts 345°
2026-04-21 12:25 45.35190 4.60149 36010 ft 419 kts 345°
2026-04-21 12:25 45.40945 4.58825 36025 ft 419 kts 345°
2026-04-21 12:26 45.46703 4.57497 36027 ft 420 kts 345°
2026-04-21 12:26 45.52475 4.56163 36025 ft 421 kts 345°
2026-04-21 12:27 45.58261 4.54824 36022 ft 422 kts 345°
2026-04-21 12:27 45.64064 4.53478 36030 ft 423 kts 345°
2026-04-21 12:28 45.69882 4.52126 36040 ft 424 kts 345°
2026-04-21 12:28 45.75725 4.50767 36022 ft 426 kts 345°
2026-04-21 12:29 45.81576 4.49405 36024 ft 426 kts 345°
2026-04-21 12:29 45.87396 4.48049 36029 ft 427 kts 345°
2026-04-21 12:30 45.93261 4.46678 36023 ft 427 kts 346°
2026-04-21 12:30 45.99126 4.45301 36021 ft 427 kts 346°
2026-04-21 12:31 46.04982 4.43929 36034 ft 426 kts 346°
2026-04-21 12:31 46.10832 4.42553 36037 ft 426 kts 346°
2026-04-21 12:32 46.15734 4.41397 36031 ft 426 kts 346°
2026-04-21 12:32 46.21537 4.40026 36032 ft 425 kts 346°
2026-04-21 12:33 46.27368 4.38646 36022 ft 424 kts 346°
2026-04-21 12:33 46.33107 4.36900 36041 ft 420 kts 341°
2026-04-21 12:34 46.38771 4.34858 36038 ft 419 kts 341°
2026-04-21 12:34 46.44418 4.32823 36041 ft 418 kts 341°
2026-04-21 12:35 46.50066 4.30821 36056 ft 418 kts 341°
2026-04-21 12:35 46.55710 4.28833 36047 ft 418 kts 341°
2026-04-21 12:36 46.61361 4.26842 36037 ft 418 kts 341°
2026-04-21 12:36 46.67004 4.24849 36045 ft 417 kts 341°
2026-04-21 12:37 46.72646 4.22852 36049 ft 417 kts 341°
2026-04-21 12:37 46.78287 4.20850 36047 ft 418 kts 341°
2026-04-21 12:38 46.83939 4.18840 36046 ft 418 kts 341°
2026-04-21 12:38 46.89595 4.16824 36059 ft 418 kts 341°
2026-04-21 12:39 46.95253 4.14803 36062 ft 419 kts 341°
2026-04-21 12:39 47.00921 4.12774 36053 ft 420 kts 341°
2026-04-21 12:40 47.06592 4.10717 36055 ft 419 kts 339°
2026-04-21 12:40 47.12006 4.07744 36060 ft 414 kts 333°
2026-04-21 12:41 47.17329 4.04485 36061 ft 415 kts 333°
2026-04-21 12:41 47.22665 4.01258 36060 ft 415 kts 334°
2026-04-21 12:42 47.28015 3.98063 36064 ft 415 kts 334°
2026-04-21 12:42 47.33361 3.94876 36096 ft 414 kts 334°
2026-04-21 12:43 47.38708 3.91683 36064 ft 415 kts 334°
2026-04-21 12:43 47.44059 3.88478 36082 ft 415 kts 334°
2026-04-21 12:44 47.49407 3.85268 36077 ft 415 kts 334°
2026-04-21 12:44 47.54716 3.82076 36099 ft 415 kts 334°
2026-04-21 12:45 47.60068 3.78861 36088 ft 415 kts 334°
2026-04-21 12:45 47.65416 3.75656 36085 ft 415 kts 334°
2026-04-21 12:46 47.70758 3.72446 36087 ft 414 kts 334°
2026-04-21 12:46 47.76099 3.69227 36120 ft 414 kts 334°
2026-04-21 12:47 47.81435 3.66003 36102 ft 414 kts 334°
2026-04-21 12:47 47.86769 3.62773 36107 ft 414 kts 334°
2026-04-21 12:48 47.92096 3.59541 36106 ft 413 kts 334°
2026-04-21 12:48 47.97415 3.56306 36129 ft 413 kts 334°
2026-04-21 12:49 48.02723 3.53050 36125 ft 412 kts 334°
2026-04-21 12:49 48.08019 3.49787 36113 ft 411 kts 334°
2026-04-21 12:50 48.13300 3.46526 36118 ft 410 kts 334°
2026-04-21 12:50 48.18576 3.43264 36135 ft 410 kts 334°
2026-04-21 12:51 48.23844 3.39999 36123 ft 409 kts 334°
2026-04-21 12:51 48.29108 3.36729 36128 ft 409 kts 334°
2026-04-21 12:52 48.34366 3.33455 36134 ft 409 kts 334°
2026-04-21 12:52 48.39589 3.30196 36158 ft 409 kts 334°
2026-04-21 12:53 48.44845 3.26881 36143 ft 410 kts 334°
2026-04-21 12:53 48.50091 3.23531 36138 ft 410 kts 333°
2026-04-21 12:54 48.55338 3.20174 36147 ft 409 kts 333°
2026-04-21 12:54 48.60584 3.16814 36155 ft 409 kts 333°
2026-04-21 12:55 48.65826 3.13449 36160 ft 409 kts 334°
2026-04-21 12:55 48.71070 3.10076 36153 ft 409 kts 334°
2026-04-21 12:56 48.76308 3.06699 36155 ft 409 kts 333°
2026-04-21 12:56 48.81536 3.03321 36160 ft 408 kts 334°
2026-04-21 12:57 48.86676 2.99677 36157 ft 406 kts 328°
2026-04-21 12:57 48.91562 2.95378 36172 ft 406 kts 327°
2026-04-21 12:58 48.96436 2.91009 36168 ft 407 kts 327°
2026-04-21 12:58 49.01333 2.86666 36169 ft 408 kts 327°
2026-04-21 12:59 49.06247 2.82331 36186 ft 408 kts 327°
2026-04-21 12:59 49.11169 2.77988 36183 ft 409 kts 327°
2026-04-21 13:00 49.16088 2.73638 36180 ft 409 kts 327°
2026-04-21 13:00 49.21006 2.69279 36181 ft 408 kts 327°
2026-04-21 13:01 49.25915 2.64917 36160 ft 408 kts 327°
2026-04-21 13:01 49.30815 2.60551 36199 ft 408 kts 327°
2026-04-21 13:02 49.35681 2.56206 36188 ft 407 kts 327°
2026-04-21 13:02 49.43022 2.49633 36203 ft 407 kts 327°
2026-04-21 13:03 49.47917 2.45238 36207 ft 407 kts 327°
2026-04-21 13:03 49.52659 2.40504 36205 ft 406 kts 318°
2026-04-21 13:04 49.56844 2.34684 36206 ft 405 kts 317°
2026-04-21 13:04 49.61026 2.28849 36212 ft 405 kts 317°
2026-04-21 13:05 49.65214 2.23035 36186 ft 405 kts 317°
2026-04-21 13:05 49.69403 2.17221 36208 ft 405 kts 317°
2026-04-21 13:06 49.73594 2.11391 36231 ft 405 kts 317°
2026-04-21 13:06 49.77785 2.05548 36216 ft 406 kts 317°
2026-04-21 13:07 49.81979 1.99686 36220 ft 406 kts 317°
2026-04-21 13:07 49.86119 1.93722 36211 ft 406 kts 311°
2026-04-21 13:08 49.89328 1.86536 36214 ft 407 kts 297°
2026-04-21 13:08 49.91518 1.78424 36212 ft 408 kts 293°
2026-04-21 13:09 49.93640 1.70259 36224 ft 408 kts 294°
2026-04-21 13:09 49.95791 1.62099 36236 ft 408 kts 294°
2026-04-21 13:10 49.98179 1.54119 36229 ft 407 kts 303°
2026-04-21 13:10 50.01728 1.47287 36223 ft 407 kts 317°
2026-04-21 13:11 50.05970 1.41528 36234 ft 408 kts 318°
2026-04-21 13:11 50.10269 1.35757 36216 ft 408 kts 318°
2026-04-21 13:12 50.14549 1.29947 36239 ft 408 kts 317°
2026-04-21 13:12 50.18819 1.24109 36270 ft 409 kts 317°
2026-04-21 13:13 50.23096 1.18238 36252 ft 409 kts 317°
2026-04-21 13:13 50.27373 1.12354 36243 ft 410 kts 317°
2026-04-21 13:14 50.31653 1.06450 36247 ft 410 kts 317°
2026-04-21 13:14 50.33802 1.03480 35888 ft 416 kts 317°
2026-04-21 13:14 50.35968 1.00484 35358 ft 414 kts 317°
2026-04-21 13:15 50.38115 0.97509 34766 ft 411 kts 317°
2026-04-21 13:15 50.40239 0.94565 34343 ft 404 kts 317°
2026-04-21 13:15 50.42331 0.91661 33597 ft 403 kts 317°
2026-04-21 13:15 50.44423 0.88753 32961 ft 400 kts 317°
2026-04-21 13:16 50.46507 0.85922 32687 ft 391 kts 318°
2026-04-21 13:16 50.48564 0.83196 32307 ft 383 kts 318°
2026-04-21 13:16 50.50589 0.80519 31879 ft 378 kts 318°
2026-04-21 13:16 50.52584 0.77866 31435 ft 374 kts 318°
2026-04-21 13:17 50.54552 0.75239 30984 ft 369 kts 318°
2026-04-21 13:17 50.56492 0.72652 30680 ft 362 kts 318°
2026-04-21 13:17 50.58403 0.70108 30263 ft 358 kts 318°
2026-04-21 13:17 50.60292 0.67592 29781 ft 353 kts 318°
2026-04-21 13:18 50.62155 0.65107 29334 ft 349 kts 318°
2026-04-21 13:18 50.63990 0.62657 28893 ft 344 kts 318°
2026-04-21 13:18 50.65801 0.60236 28497 ft 339 kts 318°
2026-04-21 13:18 50.67590 0.57840 28065 ft 335 kts 318°
2026-04-21 13:19 50.68761 0.56271 27793 ft 333 kts 318°
2026-04-21 13:19 50.70518 0.53914 27394 ft 330 kts 318°
2026-04-21 13:19 50.72816 0.50828 26870 ft 326 kts 318°
2026-04-21 13:19 50.74551 0.48494 26486 ft 331 kts 318°
2026-04-21 13:20 50.75753 0.46878 26212 ft 341 kts 318°
2026-04-21 13:20 50.77576 0.44422 25795 ft 343 kts 318°
2026-04-21 13:20 50.79384 0.41986 25422 ft 339 kts 318°
2026-04-21 13:20 50.81155 0.39595 25097 ft 332 kts 318°
2026-04-21 13:21 50.82901 0.37233 24723 ft 329 kts 318°
2026-04-21 13:21 50.84630 0.34891 24331 ft 326 kts 318°
2026-04-21 13:21 50.86345 0.32565 23955 ft 323 kts 318°
2026-04-21 13:21 50.88046 0.30256 23559 ft 320 kts 319°
2026-04-21 13:22 50.89732 0.27966 23142 ft 319 kts 319°
2026-04-21 13:22 50.91413 0.25678 22774 ft 318 kts 319°
2026-04-21 13:22 50.93093 0.23392 22419 ft 320 kts 319°
2026-04-21 13:22 50.94821 0.21036 22032 ft 338 kts 319°
2026-04-21 13:23 50.96647 0.18547 21596 ft 350 kts 319°
2026-04-21 13:23 50.98492 0.16028 21149 ft 349 kts 320°
2026-04-21 13:23 51.00325 0.13522 20713 ft 346 kts 320°
2026-04-21 13:23 51.02165 0.11071 20290 ft 344 kts 323°
2026-04-21 13:24 51.04093 0.08828 19885 ft 343 kts 326°
2026-04-21 13:24 51.06063 0.06667 19465 ft 346 kts 327°
2026-04-21 13:24 51.08084 0.04483 19065 ft 358 kts 327°
2026-04-21 13:24 51.10172 0.02218 18609 ft 368 kts 327°
2026-04-21 13:25 51.12290 -0.00094 17982 ft 369 kts 327°
2026-04-21 13:25 51.14393 -0.02410 17517 ft 364 kts 326°
2026-04-21 13:25 51.16440 -0.04677 17075 ft 352 kts 327°
2026-04-21 13:25 51.18387 -0.06840 16656 ft 341 kts 328°
2026-04-21 13:26 51.20300 -0.08970 16255 ft 330 kts 328°
2026-04-21 13:26 51.22184 -0.11070 15855 ft 322 kts 328°
2026-04-21 13:26 51.23998 -0.13094 15477 ft 315 kts 327°
2026-04-21 13:26 51.25771 -0.15076 15112 ft 308 kts 328°
2026-04-21 13:27 51.27510 -0.17021 14745 ft 302 kts 327°
2026-04-21 13:27 51.29204 -0.18911 14400 ft 301 kts 327°
2026-04-21 13:27 51.30947 -0.20859 14039 ft 303 kts 329°
2026-04-21 13:27 51.32651 -0.22762 13659 ft 304 kts 329°
2026-04-21 13:28 51.34385 -0.24704 13275 ft 305 kts 329°
2026-04-21 13:28 51.36140 -0.26673 12666 ft 313 kts 327°
2026-04-21 13:28 51.37924 -0.28681 12270 ft 314 kts 329°
2026-04-21 13:28 51.39711 -0.30690 11859 ft 314 kts 327°
2026-04-21 13:29 51.41501 -0.32704 11476 ft 314 kts 328°
2026-04-21 13:29 51.43286 -0.34709 11076 ft 310 kts 330°
2026-04-21 13:29 51.45118 -0.36418 10703 ft 300 kts 338°
2026-04-21 13:29 51.46970 -0.37861 10347 ft 292 kts 339°
2026-04-21 13:30 51.48796 -0.39229 9972 ft 286 kts 339°
2026-04-21 13:30 51.50562 -0.40558 9658 ft 274 kts 339°
2026-04-21 13:30 51.52245 -0.41838 9319 ft 260 kts 339°
2026-04-21 13:30 51.53847 -0.43068 9004 ft 250 kts 339°
2026-04-21 13:31 51.55377 -0.44249 8684 ft 238 kts 340°
2026-04-21 13:31 51.56837 -0.45384 8379 ft 227 kts 340°
2026-04-21 13:31 51.58230 -0.46469 8119 ft 221 kts 339°
2026-04-21 13:31 51.59605 -0.47540 7848 ft 218 kts 339°
2026-04-21 13:32 51.60954 -0.48594 7591 ft 215 kts 340°
2026-04-21 13:32 51.62294 -0.49639 7335 ft 213 kts 340°
2026-04-21 13:32 51.63619 -0.50677 7094 ft 211 kts 340°
2026-04-21 13:32 51.64941 -0.51713 6845 ft 211 kts 341°
2026-04-21 13:33 51.66263 -0.52749 6581 ft 211 kts 340°
2026-04-21 13:33 51.67583 -0.53786 6323 ft 211 kts 340°
2026-04-21 13:33 51.68898 -0.54820 6078 ft 210 kts 339°
2026-04-21 13:33 51.70215 -0.55855 5812 ft 211 kts 341°
2026-04-21 13:34 51.71529 -0.56892 5644 ft 209 kts 339°
2026-04-21 13:34 51.72818 -0.57911 5386 ft 203 kts 341°
2026-04-21 13:34 51.74070 -0.58901 5093 ft 198 kts 341°
2026-04-21 13:34 51.75295 -0.59867 4844 ft 195 kts 340°
2026-04-21 13:35 51.76505 -0.60823 4635 ft 193 kts 340°
2026-04-21 13:35 51.77714 -0.61779 4405 ft 194 kts 340°
2026-04-21 13:35 51.78921 -0.62733 4179 ft 192 kts 341°
2026-04-21 13:35 51.80115 -0.63677 3944 ft 189 kts 341°
2026-04-21 13:36 51.81323 -0.64285 3677 ft 173 kts 13°
2026-04-21 13:36 51.82227 -0.63434 3529 ft 144 kts 62°
2026-04-21 13:36 51.82721 -0.62036 3406 ft 144 kts 60°
2026-04-21 13:36 51.83172 -0.60589 3256 ft 147 kts 69°
2026-04-21 13:37 51.83561 -0.59056 3066 ft 149 kts 69°
2026-04-21 13:37 51.83893 -0.57515 2877 ft 142 kts 73°
2026-04-21 13:37 51.84169 -0.56017 2702 ft 137 kts 75°
2026-04-21 13:37 51.84424 -0.54558 2545 ft 136 kts 75°
2026-04-21 13:38 51.84694 -0.52982 2372 ft 152 kts 75°
2026-04-21 13:38 51.84977 -0.51324 2148 ft 151 kts 74°
2026-04-21 13:38 51.85254 -0.49706 1934 ft 146 kts 75°
2026-04-21 13:38 51.85511 -0.48201 1778 ft 134 kts 74°
2026-04-21 13:39 51.85757 -0.46774 1576 ft 129 kts 76°
2026-04-21 13:39 51.85995 -0.45376 1395 ft 128 kts 75°
2026-04-21 13:39 51.86243 -0.43965 1213 ft 133 kts 76°
2026-04-21 13:39 51.86472 -0.42566 1002 ft 128 kts 71°
2026-04-21 13:40 51.86721 -0.41146 879 ft 134 kts 75°
2026-04-21 13:40 51.86964 -0.39724 741 ft 126 kts 72°
2026-04-21 13:40 51.87199 -0.38370 550 ft 127 kts 75°
2026-04-21 13:40 51.87424 -0.37069 522 ft 99 kts 73°
2026-04-21 13:41 51.87549 -0.36340 520 ft 43 kts 75°
2026-04-21 13:41 51.87611 -0.35992 515 ft 11 kts 74°
2026-04-21 13:41 51.87660 -0.35919 515 ft 10 kts
2026-04-21 13:41 51.87726 -0.35945 515 ft 10 kts 343°
2026-04-21 13:42 51.87783 -0.36035 516 ft 15 kts 287°
2026-04-21 13:42 51.87762 -0.36202 517 ft 17 kts 254°
2026-04-21 13:42 51.87718 -0.36452 518 ft 26 kts 253°
2026-04-21 13:42 51.87673 -0.36719 521 ft 24 kts 254°
2026-04-21 13:43 51.87629 -0.36969 523 ft 23 kts 255°
2026-04-21 13:43 51.87586 -0.37222 521 ft 22 kts 255°
2026-04-21 13:43 51.87595 -0.37414 521 ft 15 kts 310°
2026-04-21 13:43 51.87664 -0.37492 521 ft 12 kts 324°
2026-04-21 13:44 51.87709 -0.37600 518 ft 12 kts 295°
2026-04-21 13:44 51.87745 -0.37728 522 ft 12 kts 295°
2026-04-21 13:44 51.87782 -0.37854 522 ft 12 kts 296°
2026-04-21 13:44 51.87829 -0.37968 522 ft 12 kts 319°
2026-04-21 13:45 51.87906 -0.38015 522 ft 12 kts 356°
2026-04-21 13:45 51.87982 -0.37979 522 ft 11 kts 33°
2026-04-21 13:45 51.88042 -0.37905 522 ft 8 kts 38°
2026-04-21 13:45 51.88073 -0.37863 522 ft 3 kts 53°
2026-04-21 13:46 51.88073 -0.37839 522 ft 2 kts 99°
2026-04-21 13:46 51.88062 -0.37807 522 ft 2 kts 129°
2026-04-21 13:46 51.88055 -0.37794 522 ft 1 kts 128°
2026-04-21 13:46 51.88051 -0.37785 522 ft 0 kts 127°